カタログに戻る

NOAA 16 DEB

運用中PO
NORAD 41372·DEBRIS·🇺🇸 United States

打ち上げ Sep 21, 2000 から Vandenberg Space Force Base

Loading…

次のパス (今後24時間)

TLE

最新Source: Space-Track

元期: Sep 14, 2026, 08:02 UTC

1 41372U 00055JR  26257.33515146  .00010927  00000-0  16874-2 0  9994
2 41372  98.9834 208.1833 0043946  43.2219 317.2420 14.72878069559237

AllMySatでNOAA 16 DEBをリアルタイム追跡

Download on the App Store